Вернуться в каталог

STARLINK-37144

АктивенСвязьVLEO
NORAD 68556·PAYLOAD·🇺🇸 United States

Запущен Apr 2, 2026 с Cape Canaveral Space Force Station

Loading…

Ближайшие Пролёты (ближайшие 24 часа)

TLE

СвежийSource: CelesTrak SupGP

Эпоха: Sep 15, 2026, 04:02 UTC

1 68556C 26070Q   26258.16854167 -.00206080  00000+0 -60878-2 0  2582
2 68556  53.1575 198.5205 0001343  84.0714 158.0753 15.34497454    19

Отслеживайте STARLINK-37144 в реальном времени с AllMySat

Download on the App Store